Home   Weather   37°22'N, 79°09'W   Past weeks
Flag for USA

Past Weather in 37°22'N, 79°09'W, USA — Yesterday and Last 2 Weeks

Now
68 °F

Overcast.


Feels Like: 68 °F
Forecast: 73 / 49 °F
Wind: 6 mph from North

Location: Lynchburg Regional Airport

Current Time: Sep 19, 2019 at 1:04:22 pm

Latest Report: Sep 19, 2019 at 11:54 am


Visibility: 10 mi

Pressure: 30.32 "Hg

Humidity: 57%

Dew Point: 52 °F

Location of 37°22'N, 79°09'WLocation

Past Weather in 37°22'N, 79°09'W — Graph

°F

37°22'N, 79°09'W Temperature Yesterday

Maximum temperature yesterday: 78 °F (at 2:54 pm)
Minimum temperature yesterday: 63 °F (at 10:54 pm)
Average temperature yesterday: 69 °F

High & Low Weather Summary for the Past Weeks

 TemperatureHumidityPressure
High97 °F (Sep 11, 3:54 pm)100% (Sep 12, 6:54 am)30.36 "Hg (Sep 12, 6:54 am)
Low55 °F (Sep 19, 2:54 am)27% (Sep 16, 2:54 pm)29.74 "Hg (Sep 6, 4:54 pm)
Average74 °F74%30.11 "Hg
* Reported Sep 4 11:54 am — Sep 19 11:54 am, 37°22'N, 79°09'W. Weather by CustomWeather, © 2019

Note: Actual official high and low records may vary slightly from our data, if they occured in-between our weather recording intervals... More about our weather records

Advertising

37°22'N, 79°09'W Weather History for the Previous 24 Hours

Scroll right to see more
 ConditionsComfort  
Time TempWeatherWind HumidityBarometerVisibility
11:54 am
Thu, Sep 19
68 °FOvercast.6 mph57%30.32 "Hg10 mi
10:54 am65 °FPartly sunny.3 mph63%30.33 "Hg10 mi
9:54 am64 °FOvercast.6 mph65%30.32 "Hg10 mi
8:54 am61 °FMostly cloudy.5 mph78%30.32 "Hg10 mi
7:54 am59 °FCloudy.6 mph84%30.30 "Hg10 mi
6:54 am58 °FOvercast.No wind87%30.29 "Hg10 mi
6:33 am58 °FOvercast.No wind87%30.30 "Hg10 mi
5:54 am58 °FOvercast.3 mph90%30.27 "Hg10 mi
4:54 am59 °FOvercast.No wind87%30.26 "Hg10 mi
3:54 am57 °FMostly cloudy.No wind90%30.26 "Hg10 mi
2:54 am55 °FPassing clouds.No wind90%30.25 "Hg10 mi
1:54 am57 °FPassing clouds.No wind83%30.24 "Hg10 mi
12:54 am60 °FPassing clouds.No wind75%30.23 "Hg10 mi
11:54 pm
Wed, Sep 18
64 °FOvercast.5 mph63%30.23 "Hg10 mi
10:54 pm63 °FClear.5 mph63%30.22 "Hg10 mi
9:54 pm64 °FClear.3 mph63%30.20 "Hg10 mi
8:54 pm66 °FClear.5 mph63%30.19 "Hg10 mi
7:54 pm68 °FClear.5 mph57%30.17 "Hg10 mi
6:54 pm72 °FSunny.5 mph52%30.15 "Hg10 mi
5:54 pm76 °FPartly sunny.6 mph45%30.14 "Hg10 mi
4:54 pm76 °FPassing clouds.6 mph43%30.14 "Hg10 mi
3:54 pm78 °FScattered clouds.No wind42%30.14 "Hg10 mi
2:54 pm78 °FPartly sunny.7 mph43%30.15 "Hg10 mi
1:54 pm75 °FCloudy.9 mph52%30.16 "Hg10 mi
Weather by CustomWeather, © 2019

See weather overview